| time (UTC) | temp F | wind direction | speed MPH | gust MPH | rain 1hr in | rain 24hr in | rain mn in | humidity % | barometer mb |
| 20260508214017 | 52 | 0.0 | 3.0 | 0.00 | 0.00 | 0.00 | 46 | 1008.5 | |
| 20260508213040 | 52 | 0.0 | 5.0 | 0.00 | 0.00 | 0.00 | 45 | 1008.6 | |
| 20260508212021 | 52 | 0.0 | 3.0 | 0.00 | 0.00 | 0.00 | 47 | 1008.6 | |
| 20260508211021 | 53 | 270 | 1.0 | 4.0 | 0.00 | 0.00 | 0.00 | 44 | 1008.4 |
| 20260508210020 | 55 | 270 | 2.0 | 8.0 | 0.00 | 0.00 | 0.00 | 41 | 1008.3 |
| 20260508205021 | 53 | 293 | 2.0 | 6.0 | 0.00 | 0.00 | 0.00 | 46 | 1008.2 |
| 20260508204018 | 53 | 270 | 1.0 | 5.0 | 0.00 | 0.00 | 0.00 | 45 | 1008.1 |
| 20260508203021 | 55 | 270 | 1.0 | 4.0 | 0.00 | 0.00 | 0.00 | 43 | 1008.2 |
| 20260508202023 | 54 | 293 | 1.0 | 5.0 | 0.00 | 0.00 | 0.00 | 46 | 1008.1 |
| 20260508201040 | 54 | 270 | 2.0 | 7.0 | 0.00 | 0.00 | 0.00 | 44 | 1008.2 |
| 20260508200020 | 54 | 270 | 2.0 | 8.0 | 0.00 | 0.00 | 0.00 | 45 | 1008.2 |
| 20260508195021 | 53 | 225 | 1.0 | 5.0 | 0.00 | 0.00 | 0.00 | 50 | 1008.1 |
| 20260508194020 | 53 | 270 | 1.0 | 3.0 | 0.00 | 0.00 | 0.00 | 46 | 1008.3 |
| 20260508193016 | 54 | 293 | 1.0 | 6.0 | 0.00 | 0.00 | 0.00 | 46 | 1008.3 |
| 20260508192021 | 52 | 315 | 1.0 | 7.0 | 0.00 | 0.00 | 0.00 | 49 | 1008.3 |
| 20260508191020 | 52 | 270 | 1.0 | 6.0 | 0.00 | 0.00 | 0.00 | 50 | 1008.4 |
| 20260508190040 | 52 | 338 | 1.0 | 5.0 | 0.00 | 0.00 | 0.00 | 48 | 1008.4 |
| 20260508185021 | 52 | 293 | 2.0 | 6.0 | 0.00 | 0.00 | 0.00 | 47 | 1008.4 |
| 20260508184020 | 52 | 293 | 2.0 | 7.0 | 0.00 | 0.00 | 0.00 | 47 | 1008.5 |
| 20260508183017 | 52 | 270 | 2.0 | 7.0 | 0.00 | 0.00 | 0.00 | 47 | 1008.5 |
| 20260508182056 | 52 | 293 | 2.0 | 7.0 | 0.00 | 0.00 | 0.00 | 46 | 1008.6 |
| 20260508181020 | 52 | 293 | 2.0 | 6.0 | 0.00 | 0.00 | 0.00 | 49 | 1008.6 |
| 20260508180020 | 51 | 270 | 2.0 | 5.0 | 0.00 | 0.00 | 0.00 | 52 | 1008.6 |
| 20260508175020 | 51 | 270 | 1.0 | 6.0 | 0.00 | 0.00 | 0.00 | 52 | 1008.6 |
| 20260508174020 | 51 | 270 | 2.0 | 6.0 | 0.00 | 0.00 | 0.00 | 49 | 1008.6 |
| 20260508173021 | 52 | 270 | 2.0 | 6.0 | 0.00 | 0.00 | 0.00 | 47 | 1008.7 |
| 20260508172017 | 52 | 270 | 2.0 | 6.0 | 0.00 | 0.00 | 0.00 | 48 | 1008.6 |
| 20260508171016 | 52 | 270 | 3.0 | 8.0 | 0.00 | 0.00 | 0.00 | 48 | 1008.7 |
| 20260508170020 | 51 | 315 | 2.0 | 7.0 | 0.00 | 0.00 | 0.00 | 54 | 1008.7 |
| 20260508165021 | 52 | 315 | 1.0 | 4.0 | 0.00 | 0.00 | 0.00 | 50 | 1008.7 |
| 20260508164020 | 51 | 270 | 2.0 | 7.0 | 0.00 | 0.00 | 0.00 | 53 | 1008.8 |
| 20260508163020 | 50 | 293 | 1.0 | 4.0 | 0.00 | 0.00 | 0.00 | 56 | 1008.8 |
| 20260508162020 | 50 | 293 | 1.0 | 4.0 | 0.00 | 0.00 | 0.00 | 55 | 1008.7 |
| 20260508161016 | 50 | 293 | 1.0 | 6.0 | 0.00 | 0.00 | 0.00 | 53 | 1008.6 |
| 20260508160020 | 51 | 270 | 2.0 | 7.0 | 0.00 | 0.00 | 0.00 | 49 | 1008.5 |
| 20260508155020 | 52 | 293 | 1.0 | 5.0 | 0.00 | 0.00 | 0.00 | 50 | 1008.4 |
| 20260508154020 | 53 | 293 | 2.0 | 5.0 | 0.00 | 0.00 | 0.00 | 49 | 1008.4 |
| 20260508153020 | 52 | 293 | 2.0 | 6.0 | 0.00 | 0.00 | 0.00 | 49 | 1008.4 |
| 20260508152020 | 51 | 293 | 1.0 | 5.0 | 0.00 | 0.00 | 0.00 | 50 | 1008.4 |
| 20260508151020 | 52 | 293 | 1.0 | 5.0 | 0.00 | 0.00 | 0.00 | 47 | 1008.4 |
| 20260508150016 | 50 | 293 | 1.0 | 5.0 | 0.00 | 0.00 | 0.00 | 50 | 1008.3 |
| 20260508145020 | 50 | 0.0 | 2.0 | 0.00 | 0.00 | 0.00 | 52 | 1008.3 | |
| 20260508144020 | 50 | 270 | 1.0 | 5.0 | 0.00 | 0.00 | 0.00 | 49 | 1008.4 |
| 20260508143021 | 51 | 315 | 1.0 | 5.0 | 0.00 | 0.00 | 0.00 | 49 | 1008.4 |
| 20260508142020 | 52 | 293 | 3.0 | 8.0 | 0.00 | 0.00 | 0.00 | 48 | 1008.4 |
| 20260508141020 | 51 | 270 | 2.0 | 5.0 | 0.00 | 0.00 | 0.00 | 50 | 1008.6 |
| 20260508140020 | 50 | 293 | 2.0 | 6.0 | 0.00 | 0.00 | 0.00 | 51 | 1008.6 |
| 20260508135016 | 51 | 338 | 1.0 | 4.0 | 0.00 | 0.00 | 0.00 | 54 | 1008.5 |
| 20260508134020 | 51 | 270 | 1.0 | 5.0 | 0.00 | 0.00 | 0.00 | 53 | 1008.6 |
| 20260508133020 | 50 | 293 | 1.0 | 3.0 | 0.00 | 0.00 | 0.00 | 55 | 1008.6 |
| 20260508132020 | 49 | 225 | 2.0 | 7.0 | 0.00 | 0.00 | 0.00 | 61 | 1008.6 |
| 20260508131020 | 49 | 270 | 1.0 | 5.0 | 0.00 | 0.00 | 0.00 | 61 | 1008.8 |
| 20260508130020 | 48 | 248 | 1.0 | 4.0 | 0.00 | 0.00 | 0.00 | 66 | 1008.9 |
| 20260508125020 | 47 | 0.0 | 3.0 | 0.00 | 0.00 | 0.00 | 64 | 1009.0 | |
| 20260508124018 | 47 | 225 | 1.0 | 4.0 | 0.00 | 0.00 | 0.00 | 64 | 1008.9 |
| 20260508123041 | 47 | 0.0 | 4.0 | 0.00 | 0.00 | 0.00 | 66 | 1009.0 | |
| 20260508122044 | 46 | 270 | 1.0 | 4.0 | 0.00 | 0.00 | 0.00 | 65 | 1009.0 |
| 20260508121024 | 45 | 0.0 | 5.0 | 0.00 | 0.00 | 0.00 | 66 | 1009.0 | |
| 20260508120024 | 45 | 0.0 | 2.0 | 0.00 | 0.00 | 0.00 | 68 | 1009.0 | |
| 20260508115024 | 44 | 0.0 | 2.0 | 0.00 | 0.00 | 0.00 | 72 | 1009.0 | |
| 20260508114017 | 43 | 0.0 | 2.0 | 0.00 | 0.00 | 0.00 | 75 | 1008.9 | |
| 20260508113020 | 41 | 0.0 | 0.0 | 0.00 | 0.00 | 0.00 | 79 | 1008.7 | |
| 20260508112020 | 38 | 0.0 | 0.0 | 0.00 | 0.00 | 0.00 | 84 | 1008.6 | |
| 20260508111020 | 36 | 0.0 | 0.0 | 0.00 | 0.00 | 0.00 | 88 | 1008.5 | |
| 20260508110021 | 34 | 0.0 | 0.0 | 0.00 | 0.00 | 0.00 | 87 | 1008.4 | |
| 20260508105038 | 33 | 0.0 | 0.0 | 0.00 | 0.00 | 0.00 | 90 | 1008.4 | |
| 20260508104021 | 32 | 0.0 | 0.0 | 0.00 | 0.00 | 0.00 | 90 | 1008.4 | |
| 20260508103037 | 32 | 0.0 | 0.0 | 0.00 | 0.00 | 0.00 | 89 | 1008.2 | |
| 20260508102020 | 32 | 0.0 | 0.0 | 0.00 | 0.00 | 0.00 | 88 | 1008.1 | |
| 20260508101020 | 31 | 0.0 | 0.0 | 0.00 | 0.00 | 0.00 | 89 | 1007.9 | |
| 20260508100020 | 31 | 0.0 | 0.0 | 0.00 | 0.00 | 0.00 | 89 | 1007.8 | |
| 20260508095020 | 31 | 0.0 | 2.0 | 0.00 | 0.00 | 0.00 | 90 | 1007.7 | |
| 20260508094018 | 31 | 0.0 | 0.0 | 0.00 | 0.00 | 0.00 | 90 | 1007.6 | |
| 20260508093020 | 30 | 0.0 | 0.0 | 0.00 | 0.00 | 0.00 | 91 | 1007.5 | |
| 20260508092016 | 30 | 0.0 | 0.0 | 0.00 | 0.00 | 0.00 | 91 | 1007.6 | |
| 20260508091141 | 31 | 0.0 | 0.0 | 0.00 | 0.00 | 0.00 | 88 | 1007.6 | |
| 20260508090020 | 31 | 0.0 | 0.0 | 0.00 | 0.00 | 0.00 | 89 | 1007.5 | |
| 20260508085020 | 32 | 0.0 | 0.0 | 0.00 | 0.00 | 0.00 | 89 | 1007.4 | |
| 20260508084020 | 32 | 0.0 | 0.0 | 0.00 | 0.00 | 0.00 | 87 | 1007.5 | |
| 20260508083018 | 32 | 0.0 | 0.0 | 0.00 | 0.01 | 0.00 | 87 | 1007.5 | |
| 20260508082040 | 32 | 0.0 | 0.0 | 0.00 | 0.01 | 0.00 | 87 | 1007.3 | |
| 20260508081017 | 32 | 0.0 | 0.0 | 0.00 | 0.01 | 0.00 | 88 | 1007.3 | |
| 20260508080020 | 31 | 0.0 | 0.0 | 0.00 | 0.01 | 0.00 | 89 | 1007.1 | |
| 20260508075020 | 31 | 0.0 | 0.0 | 0.00 | 0.01 | 0.00 | 88 | 1007.1 | |
| 20260508074021 | 32 | 0.0 | 0.0 | 0.00 | 0.01 | 0.00 | 88 | 1007.1 | |
| 20260508073020 | 32 | 0.0 | 0.0 | 0.00 | 0.01 | 0.00 | 87 | 1007.1 | |
| 20260508072018 | 32 | 0.0 | 0.0 | 0.00 | 0.01 | 0.00 | 86 | 1007.1 | |
| 20260508071041 | 32 | 0.0 | 0.0 | 0.00 | 0.01 | 0.00 | 87 | 1007.2 | |
| 20260508070016 | 33 | 0.0 | 0.0 | 0.00 | 0.01 | 0.00 | 85 | 1007.3 | |
| 20260508065020 | 33 | 0.0 | 0.0 | 0.00 | 0.01 | 0.00 | 84 | 1007.2 | |
| 20260508064101 | 33 | 0.0 | 0.0 | 0.00 | 0.01 | 0.00 | 85 | 1007.2 | |
| 20260508063020 | 33 | 0.0 | 0.0 | 0.00 | 0.01 | 0.00 | 85 | 1007.2 | |
| 20260508062020 | 33 | 0.0 | 0.0 | 0.00 | 0.01 | 0.00 | 86 | 1007.2 | |
| 20260508061018 | 33 | 0.0 | 0.0 | 0.00 | 0.01 | 0.00 | 84 | 1007.3 | |
| 20260508060020 | 34 | 0.0 | 0.0 | 0.00 | 0.01 | 0.00 | 84 | 1007.2 | |
| 20260508055016 | 34 | 0.0 | 0.0 | 0.00 | 0.01 | 0.00 | 84 | 1007.5 | |
| 20260508054041 | 34 | 0.0 | 0.0 | 0.00 | 0.01 | 0.00 | 82 | 1007.7 | |
| 20260508053041 | 35 | 0.0 | 0.0 | 0.00 | 0.01 | 0.00 | 83 | 1007.7 | |
| 20260508052020 | 35 | 0.0 | 0.0 | 0.00 | 0.01 | 0.00 | 82 | 1007.8 | |
| 20260508051020 | 35 | 0.0 | 0.0 | 0.00 | 0.01 | 0.00 | 80 | 1007.9 | |
| 20260508050018 | 35 | 0.0 | 0.0 | 0.00 | 0.01 | 0.00 | 79 | 1007.9 | |
| 20260508045020 | 35 | 0.0 | 0.0 | 0.00 | 0.01 | 0.00 | 80 | 1007.9 | |
| 20260508044037 | 36 | 0.0 | 0.0 | 0.00 | 0.01 | 0.00 | 80 | 1008.0 | |
| 20260508043020 | 36 | 0.0 | 0.0 | 0.00 | 0.01 | 0.00 | 79 | 1007.9 | |
| 20260508042041 | 37 | 0.0 | 0.0 | 0.00 | 0.01 | 0.00 | 79 | 1008.0 | |
| 20260508041021 | 37 | 0.0 | 0.0 | 0.00 | 0.01 | 0.00 | 78 | 1008.0 | |
| 20260508040020 | 38 | 0.0 | 0.0 | 0.00 | 0.01 | 0.01 | 77 | 1008.0 | |
| 20260508035041 | 38 | 0.0 | 0.0 | 0.00 | 0.01 | 0.01 | 77 | 1007.9 | |
| 20260508034016 | 39 | 0.0 | 0.0 | 0.00 | 0.01 | 0.01 | 74 | 1007.9 | |
| 20260508033101 | 39 | 0.0 | 0.0 | 0.00 | 0.01 | 0.01 | 73 | 1007.9 | |
| 20260508032040 | 40 | 0.0 | 0.0 | 0.00 | 0.01 | 0.01 | 73 | 1007.9 | |
| 20260508031025 | 40 | 0.0 | 0.0 | 0.00 | 0.01 | 0.01 | 73 | 1007.8 | |
| 20260508030021 | 41 | 0.0 | 2.0 | 0.00 | 0.01 | 0.01 | 71 | 1007.8 | |
| 20260508025019 | 41 | 0.0 | 0.0 | 0.00 | 0.01 | 0.01 | 69 | 1007.8 | |
| 20260508024020 | 41 | 0.0 | 0.0 | 0.00 | 0.01 | 0.01 | 66 | 1007.8 | |
| 20260508023015 | 42 | 0.0 | 0.0 | 0.00 | 0.02 | 0.01 | 69 | 1007.7 | |
| 20260508022019 | 42 | 0.0 | 0.0 | 0.00 | 0.02 | 0.01 | 67 | 1007.6 | |
| 20260508021020 | 43 | 0.0 | 0.0 | 0.00 | 0.03 | 0.01 | 67 | 1007.4 | |
| 20260508020020 | 44 | 0.0 | 0.0 | 0.00 | 0.03 | 0.01 | 65 | 1007.4 | |
| 20260508015020 | 44 | 0.0 | 0.0 | 0.00 | 0.04 | 0.01 | 67 | 1007.4 | |
| 20260508014020 | 45 | 0.0 | 0.0 | 0.00 | 0.04 | 0.01 | 63 | 1007.5 | |
| 20260508013017 | 45 | 0.0 | 0.0 | 0.00 | 0.05 | 0.01 | 67 | 1007.4 | |
| 20260508012016 | 45 | 0.0 | 0.0 | 0.00 | 0.06 | 0.01 | 59 | 1007.4 | |
| 20260508011020 | 46 | 0.0 | 0.0 | 0.00 | 0.07 | 0.01 | 61 | 1007.3 | |
| 20260508010020 | 46 | 0.0 | 0.0 | 0.00 | 0.07 | 0.01 | 57 | 1007.2 | |
| 20260508005020 | 47 | 0.0 | 0.0 | 0.00 | 0.08 | 0.01 | 56 | 1007.1 | |
| 20260508004019 | 48 | 0.0 | 0.0 | 0.00 | 0.09 | 0.01 | 55 | 1006.9 | |
| 20260508003040 | 48 | 0.0 | 0.0 | 0.00 | 0.10 | 0.01 | 53 | 1006.6 | |
| 20260508002016 | 49 | 0.0 | 1.0 | 0.00 | 0.11 | 0.01 | 52 | 1006.6 | |
| 20260508001020 | 49 | 0.0 | 0.0 | 0.00 | 0.11 | 0.01 | 51 | 1006.5 | |
| 20260508000020 | 50 | 0.0 | 1.0 | 0.00 | 0.11 | 0.01 | 51 | 1006.5 | |
| 20260507235020 | 50 | 0.0 | 5.0 | 0.00 | 0.11 | 0.01 | 52 | 1006.5 | |
| 20260507234040 | 51 | 0.0 | 3.0 | 0.00 | 0.11 | 0.01 | 49 | 1006.3 | |
| 20260507233018 | 52 | 0.0 | 4.0 | 0.00 | 0.11 | 0.01 | 47 | 1006.0 | |
| 20260507232020 | 52 | 315 | 1.0 | 4.0 | 0.00 | 0.11 | 0.01 | 47 | 1005.8 |
| 20260507231017 | 53 | 0.0 | 3.0 | 0.00 | 0.11 | 0.01 | 46 | 1005.8 | |
| 20260507230020 | 53 | 338 | 1.0 | 5.0 | 0.00 | 0.11 | 0.01 | 46 | 1005.7 |
| 20260507225020 | 53 | 0.0 | 1.0 | 0.00 | 0.11 | 0.01 | 46 | 1005.6 | |
| 20260507224019 | 54 | 0.0 | 3.0 | 0.00 | 0.11 | 0.01 | 44 | 1005.4 | |
| 20260507223020 | 54 | 293 | 1.0 | 4.0 | 0.00 | 0.11 | 0.01 | 46 | 1005.3 |
| 20260507222019 | 54 | 293 | 1.0 | 5.0 | 0.00 | 0.11 | 0.01 | 44 | 1005.3 |
| 20260507221019 | 55 | 293 | 1.0 | 3.0 | 0.00 | 0.11 | 0.01 | 44 | 1005.2 |
| 20260507220016 | 55 | 0.0 | 3.0 | 0.00 | 0.11 | 0.01 | 44 | 1005.2 | |
| 20260507215041 | 55 | 293 | 1.0 | 5.0 | 0.00 | 0.11 | 0.01 | 42 | 1005.3 |